Time,TemperatureF,DewpointF,PressureIn,WindDirection,WindDirectionDegrees,WindSpeedMPH,WindSpeedGustMPH,Humidity,HourlyPrecipIn,Conditions,Clouds,dailyrainin,SoftwareType,DateUTC
2013-03-07 00:00:00,21.1,15.0,29.97,ESE,113,0.0,2.0,77,0.00,,,0.00,VWS V14.01,2013-03-07 07:00:00,
2013-03-07 00:05:00,21.1,15.0,29.97,SE,141,0.0,2.0,77,0.00,,,0.00,VWS V14.01,2013-03-07 07:05:00,
2013-03-07 00:10:00,21.1,15.3,29.97,ESE,108,2.0,4.0,78,0.00,,,0.00,VWS V14.01,2013-03-07 07:10:00,
2013-03-07 00:15:00,21.1,15.3,29.94,ENE,74,0.0,4.0,78,0.00,,,0.00,VWS V14.01,2013-03-07 07:15:00,
2013-03-07 00:20:00,21.1,15.3,29.94,East,96,0.0,4.0,78,0.00,,,0.00,VWS V14.01,2013-03-07 07:20:00,
2013-03-07 00:25:00,21.1,15.3,29.94,ESE,104,0.0,4.0,78,0.00,,,0.00,VWS V14.01,2013-03-07 07:25:00,
2013-03-07 00:30:00,21.1,15.3,29.94,ESE,105,0.0,4.0,78,0.00,,,0.00,VWS V14.01,2013-03-07 07:30:00,
2013-03-07 00:35:00,21.1,15.3,29.94,ESE,118,0.0,4.0,78,0.00,,,0.00,VWS V14.01,2013-03-07 07:35:00,
2013-03-07 00:40:00,21.1,15.3,29.94,ESE,103,0.0,4.0,78,0.00,,,0.00,VWS V14.01,2013-03-07 07:40:00,
2013-03-07 00:45:00,21.0,15.2,29.94,ESE,105,0.0,4.0,78,0.00,,,0.00,VWS V14.01,2013-03-07 07:45:00,
2013-03-07 00:50:00,21.0,15.5,29.94,ESE,111,0.0,4.0,79,0.00,,,0.00,VWS V14.01,2013-03-07 07:50:00,
2013-03-07 00:55:00,20.8,15.3,29.94,East,101,0.0,4.0,79,0.00,,,0.00,VWS V14.01,2013-03-07 07:55:00,
2013-03-07 01:00:00,20.6,15.1,29.94,ESE,117,0.0,0.0,79,0.00,,,0.00,VWS V14.01,2013-03-07 08:00:00,
2013-03-07 01:05:00,20.5,15.0,29.94,ESE,108,0.0,1.0,79,0.00,,,0.00,VWS V14.01,2013-03-07 08:05:00,
2013-03-07 01:10:00,20.5,15.0,29.94,ESE,118,0.0,3.0,79,0.00,,,0.00,VWS V14.01,2013-03-07 08:10:00,
2013-03-07 01:15:00,20.5,15.0,29.94,ESE,109,0.0,3.0,79,0.00,,,0.00,VWS V14.01,2013-03-07 08:15:00,
2013-03-07 01:20:00,20.5,15.3,29.94,ESE,113,0.0,3.0,80,0.00,,,0.00,VWS V14.01,2013-03-07 08:20:00,
2013-03-07 01:25:00,20.3,15.1,29.94,ESE,121,0.0,3.0,80,0.00,,,0.00,VWS V14.01,2013-03-07 08:25:00,
2013-03-07 01:30:00,20.3,15.1,29.96,ESE,111,0.0,0.0,80,0.00,,,0.00,VWS V14.01,2013-03-07 08:30:00,
2013-03-07 01:35:00,20.2,15.0,29.96,ESE,111,0.0,0.0,80,0.00,,,0.00,VWS V14.01,2013-03-07 08:35:00,
2013-03-07 01:40:00,20.0,15.1,29.96,ESE,111,0.0,0.0,81,0.00,,,0.00,VWS V14.01,2013-03-07 08:40:00,
2013-03-07 01:45:00,20.0,15.1,29.97,ESE,113,0.0,0.0,81,0.00,,,0.00,VWS V14.01,2013-03-07 08:45:00,
2013-03-07 01:50:00,20.0,15.4,29.97,ESE,112,0.0,0.0,82,0.00,,,0.00,VWS V14.01,2013-03-07 08:50:00,
2013-03-07 01:55:00,20.0,15.1,29.97,ESE,112,0.0,0.0,81,0.00,,,0.00,VWS V14.01,2013-03-07 08:55:00,
2013-03-07 02:00:00,19.9,15.0,29.97,ESE,112,0.0,0.0,81,0.00,,,0.00,VWS V14.01,2013-03-07 09:00:00,
2013-03-07 02:05:00,19.9,15.0,29.97,SE,130,0.0,2.0,81,0.00,,,0.00,VWS V14.01,2013-03-07 09:05:00,
2013-03-07 02:10:00,19.9,15.0,29.97,ESE,115,0.0,2.0,81,0.00,,,0.00,VWS V14.01,2013-03-07 09:10:00,
2013-03-07 02:15:00,19.7,14.8,29.98,ESE,105,0.0,2.0,81,0.00,,,0.00,VWS V14.01,2013-03-07 09:15:00,
2013-03-07 02:20:00,19.7,14.8,29.98,ESE,105,0.0,2.0,81,0.00,,,0.00,VWS V14.01,2013-03-07 09:20:00,
2013-03-07 02:25:00,19.7,14.8,29.98,ESE,105,0.0,2.0,81,0.00,,,0.00,VWS V14.01,2013-03-07 09:25:00,
2013-03-07 02:30:00,19.7,14.8,29.98,ESE,105,0.0,0.0,81,0.00,,,0.00,VWS V14.01,2013-03-07 09:30:00,
2013-03-07 02:35:00,19.7,14.5,29.98,ESE,105,0.0,0.0,80,0.00,,,0.00,VWS V14.01,2013-03-07 09:35:00,
2013-03-07 02:40:00,19.7,14.8,29.98,ESE,105,0.0,0.0,81,0.00,,,0.00,VWS V14.01,2013-03-07 09:40:00,
2013-03-07 02:45:00,19.7,14.8,29.98,ESE,105,0.0,0.0,81,0.00,,,0.00,VWS V14.01,2013-03-07 09:45:00,
2013-03-07 02:50:00,19.7,14.8,29.98,ESE,105,0.0,0.0,81,0.00,,,0.00,VWS V14.01,2013-03-07 09:50:00,
2013-03-07 02:55:00,19.7,14.8,29.98,ESE,105,0.0,0.0,81,0.00,,,0.00,VWS V14.01,2013-03-07 09:55:00,
2013-03-07 03:00:00,19.9,14.7,29.98,ESE,105,0.0,0.0,80,0.00,,,0.00,VWS V14.01,2013-03-07 10:00:00,
2013-03-07 03:06:00,19.9,14.7,29.98,ESE,105,0.0,0.0,80,0.00,,,0.00,VWS V14.01,2013-03-07 10:06:00,
2013-03-07 03:11:00,19.9,14.7,29.98,ESE,105,0.0,0.0,80,0.00,,,0.00,VWS V14.01,2013-03-07 10:11:00,
2013-03-07 03:16:00,20.0,14.8,30.00,ESE,105,0.0,0.0,80,0.00,,,0.00,VWS V14.01,2013-03-07 10:16:00,
2013-03-07 03:21:00,20.0,14.6,30.00,East,99,0.0,1.0,79,0.00,,,0.00,VWS V14.01,2013-03-07 10:21:00,
2013-03-07 03:26:00,20.0,14.8,30.00,ESE,105,0.0,1.0,80,0.00,,,0.00,VWS V14.01,2013-03-07 10:26:00,
2013-03-07 03:30:00,20.0,14.8,30.00,ESE,111,0.0,1.0,80,0.00,,,0.00,VWS V14.01,2013-03-07 10:30:00,
2013-03-07 03:31:00,20.0,14.8,30.00,ESE,111,0.0,0.0,80,0.00,,,0.00,VWS V14.01,2013-03-07 10:31:00,
2013-03-07 03:36:00,20.0,14.8,30.00,ENE,60,0.0,0.0,80,0.00,,,0.00,VWS V14.01,2013-03-07 10:36:00,
2013-03-07 03:41:00,19.9,14.4,30.00,SE,131,0.0,1.0,79,0.00,,,0.00,VWS V14.01,2013-03-07 10:41:00,
2013-03-07 03:46:00,19.9,14.4,30.00,ESE,112,0.0,1.0,79,0.00,,,0.00,VWS V14.01,2013-03-07 10:46:00,
2013-03-07 03:51:00,19.9,14.7,30.00,ESE,112,0.0,1.0,80,0.00,,,0.00,VWS V14.01,2013-03-07 10:51:00,
2013-03-07 03:56:00,19.7,14.5,30.00,ESE,112,0.0,1.0,80,0.00,,,0.00,VWS V14.01,2013-03-07 10:56:00,
2013-03-07 04:00:00,19.7,14.5,30.00,ESE,110,0.0,1.0,80,0.00,,,0.00,VWS V14.01,2013-03-07 11:00:00,
2013-03-07 04:01:00,19.7,14.3,30.00,ESE,110,0.0,0.0,79,0.00,,,0.00,VWS V14.01,2013-03-07 11:01:00,
2013-03-07 04:06:00,19.5,14.4,30.00,East,101,0.0,1.0,80,0.00,,,0.00,VWS V14.01,2013-03-07 11:06:00,
2013-03-07 04:11:00,19.4,14.2,30.00,ESE,114,0.0,1.0,80,0.00,,,0.00,VWS V14.01,2013-03-07 11:11:00,
2013-03-07 04:16:00,19.4,14.5,30.02,ESE,106,0.0,1.0,81,0.00,,,0.00,VWS V14.01,2013-03-07 11:16:00,
2013-03-07 04:21:00,19.2,14.3,30.02,ESE,103,0.0,1.0,81,0.00,,,0.00,VWS V14.01,2013-03-07 11:21:00,
2013-03-07 04:26:00,19.1,14.2,30.02,ESE,106,0.0,1.0,81,0.00,,,0.00,VWS V14.01,2013-03-07 11:26:00,
2013-03-07 04:30:00,19.1,14.2,30.02,ESE,107,0.0,1.0,81,0.00,,,0.00,VWS V14.01,2013-03-07 11:30:00,
2013-03-07 04:31:00,19.1,14.2,30.02,ESE,108,0.0,0.0,81,0.00,,,0.00,VWS V14.01,2013-03-07 11:31:00,
2013-03-07 04:36:00,18.9,14.0,30.02,ESE,109,0.0,0.0,81,0.00,,,0.00,VWS V14.01,2013-03-07 11:36:00,
2013-03-07 04:41:00,18.9,14.0,30.02,ESE,109,0.0,0.0,81,0.00,,,0.00,VWS V14.01,2013-03-07 11:41:00,
2013-03-07 04:46:00,18.8,13.9,30.03,ESE,103,0.0,0.0,81,0.00,,,0.00,VWS V14.01,2013-03-07 11:46:00,
2013-03-07 04:51:00,18.8,13.9,30.03,ESE,103,0.0,0.0,81,0.00,,,0.00,VWS V14.01,2013-03-07 11:51:00,
2013-03-07 04:56:00,18.6,13.8,30.03,East,98,0.0,0.0,81,0.00,,,0.00,VWS V14.01,2013-03-07 11:56:00,
2013-03-07 05:00:00,18.6,13.8,30.03,East,98,0.0,0.0,81,0.00,,,0.00,VWS V14.01,2013-03-07 12:00:00,
2013-03-07 05:01:00,18.6,13.8,30.03,East,98,0.0,0.0,81,0.00,,,0.00,VWS V14.01,2013-03-07 12:01:00,
2013-03-07 05:06:00,18.4,13.6,30.03,SE,127,0.0,0.0,81,0.00,,,0.00,VWS V14.01,2013-03-07 12:06:00,
2013-03-07 05:11:00,18.3,13.5,30.03,SE,125,0.0,0.0,81,0.00,,,0.00,VWS V14.01,2013-03-07 12:11:00,
2013-03-07 05:16:00,18.3,13.5,30.04,ESE,104,0.0,0.0,81,0.00,,,0.00,VWS V14.01,2013-03-07 12:16:00,
2013-03-07 05:21:00,18.1,13.3,30.04,ESE,105,0.0,0.0,81,0.00,,,0.00,VWS V14.01,2013-03-07 12:21:00,
2013-03-07 05:26:00,18.1,13.3,30.04,ESE,105,0.0,1.0,81,0.00,,,0.00,VWS V14.01,2013-03-07 12:26:00,
2013-03-07 05:30:00,18.0,13.2,30.04,ESE,105,0.0,1.0,81,0.00,,,0.00,VWS V14.01,2013-03-07 12:30:00,
2013-03-07 05:31:00,18.0,13.2,30.04,ESE,105,0.0,0.0,81,0.00,,,0.00,VWS V14.01,2013-03-07 12:31:00,
2013-03-07 05:36:00,18.0,13.4,30.04,ESE,108,0.0,0.0,82,0.00,,,0.00,VWS V14.01,2013-03-07 12:36:00,
2013-03-07 05:41:00,18.0,13.4,30.04,ESE,108,0.0,0.0,82,0.00,,,0.00,VWS V14.01,2013-03-07 12:41:00,
2013-03-07 05:46:00,17.8,13.2,30.05,ESE,108,0.0,0.0,82,0.00,,,0.00,VWS V14.01,2013-03-07 12:46:00,
2013-03-07 05:51:00,17.8,13.2,30.05,ESE,108,0.0,0.0,82,0.00,,,0.00,VWS V14.01,2013-03-07 12:51:00,
2013-03-07 05:56:00,17.8,13.2,30.05,ESE,108,0.0,0.0,82,0.00,,,0.00,VWS V14.01,2013-03-07 12:56:00,
2013-03-07 06:00:00,17.7,13.1,30.04,ESE,108,0.0,0.0,82,0.00,,,0.00,VWS V14.01,2013-03-07 13:00:00,
2013-03-07 06:01:00,17.7,13.1,30.05,ESE,108,0.0,0.0,82,0.00,,,0.00,VWS V14.01,2013-03-07 13:01:00,
2013-03-07 06:06:00,17.7,13.1,30.05,ESE,108,0.0,0.0,82,0.00,,,0.00,VWS V14.01,2013-03-07 13:06:00,
2013-03-07 06:11:00,17.7,13.1,30.05,ESE,108,0.0,0.0,82,0.00,,,0.00,VWS V14.01,2013-03-07 13:11:00,
2013-03-07 06:16:00,17.7,13.4,30.06,ESE,108,0.0,0.0,83,0.00,,,0.00,VWS V14.01,2013-03-07 13:16:00,
2013-03-07 06:21:00,17.5,12.9,30.06,ESE,108,0.0,1.0,82,0.00,,,0.00,VWS V14.01,2013-03-07 13:21:00,
2013-03-07 06:26:00,17.3,12.8,30.06,ESE,110,0.0,1.0,82,0.00,,,0.00,VWS V14.01,2013-03-07 13:26:00,
2013-03-07 06:30:00,17.3,12.8,30.08,ESE,110,0.0,1.0,82,0.00,,,0.00,VWS V14.01,2013-03-07 13:30:00,
2013-03-07 06:32:00,17.2,12.7,30.08,ESE,110,0.0,0.0,82,0.00,,,0.00,VWS V14.01,2013-03-07 13:32:00,
2013-03-07 06:37:00,17.2,12.7,30.08,ESE,110,0.0,0.0,82,0.00,,,0.00,VWS V14.01,2013-03-07 13:37:00,
2013-03-07 06:42:00,17.2,12.7,30.08,ESE,110,0.0,0.0,82,0.00,,,0.00,VWS V14.01,2013-03-07 13:42:00,
2013-03-07 06:47:00,17.2,12.7,30.08,ESE,110,0.0,0.0,82,0.00,,,0.00,VWS V14.01,2013-03-07 13:47:00,
2013-03-07 06:52:00,17.2,12.7,30.08,ESE,110,0.0,0.0,82,0.00,,,0.00,VWS V14.01,2013-03-07 13:52:00,
2013-03-07 06:57:00,17.2,12.7,30.08,ESE,110,0.0,0.0,82,0.00,,,0.00,VWS V14.01,2013-03-07 13:57:00,
2013-03-07 07:00:00,17.2,12.7,30.08,ESE,110,0.0,0.0,82,0.00,,,0.00,VWS V14.01,2013-03-07 14:00:00,
2013-03-07 07:02:00,17.0,12.5,30.08,ESE,110,0.0,0.0,82,0.00,,,0.00,VWS V14.01,2013-03-07 14:02:00,
2013-03-07 07:07:00,17.0,12.5,30.08,ESE,110,0.0,0.0,82,0.00,,,0.00,VWS V14.01,2013-03-07 14:07:00,
2013-03-07 07:12:00,17.0,12.5,30.08,ESE,110,0.0,0.0,82,0.00,,,0.00,VWS V14.01,2013-03-07 14:12:00,
2013-03-07 07:17:00,16.9,12.4,30.08,ESE,110,0.0,0.0,82,0.00,,,0.00,VWS V14.01,2013-03-07 14:17:00,
2013-03-07 07:22:00,16.9,12.4,30.08,ESE,110,0.0,0.0,82,0.00,,,0.00,VWS V14.01,2013-03-07 14:22:00,
2013-03-07 07:27:00,16.9,12.4,30.08,ESE,110,0.0,1.0,82,0.00,,,0.00,VWS V14.01,2013-03-07 14:27:00,
2013-03-07 07:30:00,16.7,12.2,30.09,ESE,114,0.0,1.0,82,0.00,,,0.00,VWS V14.01,2013-03-07 14:30:00,
2013-03-07 07:32:00,16.7,12.2,30.09,ESE,107,0.0,2.0,82,0.00,,,0.00,VWS V14.01,2013-03-07 14:32:00,
2013-03-07 07:37:00,16.7,12.2,30.09,ESE,107,0.0,2.0,82,0.00,,,0.00,VWS V14.01,2013-03-07 14:37:00,
2013-03-07 07:42:00,16.7,12.2,30.09,ESE,107,0.0,2.0,82,0.00,,,0.00,VWS V14.01,2013-03-07 14:42:00,
2013-03-07 07:47:00,16.7,12.2,30.10,ESE,107,0.0,2.0,82,0.00,,,0.00,VWS V14.01,2013-03-07 14:47:00,
2013-03-07 07:52:00,16.7,12.2,30.10,ESE,107,0.0,2.0,82,0.00,,,0.00,VWS V14.01,2013-03-07 14:52:00,
2013-03-07 07:57:00,16.9,12.4,30.10,ESE,107,0.0,2.0,82,0.00,,,0.00,VWS V14.01,2013-03-07 14:57:00,
2013-03-07 08:00:00,16.9,12.4,30.10,ESE,107,0.0,2.0,82,0.00,,,0.00,VWS V14.01,2013-03-07 15:00:00,
2013-03-07 08:02:00,17.0,12.5,30.10,ESE,107,0.0,0.0,82,0.00,,,0.00,VWS V14.01,2013-03-07 15:02:00,
2013-03-07 08:07:00,17.2,12.7,30.10,ESE,107,0.0,0.0,82,0.00,,,0.00,VWS V14.01,2013-03-07 15:07:00,
2013-03-07 08:12:00,17.2,12.4,30.10,SSE,158,0.0,0.0,81,0.00,,,0.00,VWS V14.01,2013-03-07 15:12:00,
2013-03-07 08:17:00,17.0,12.2,30.10,ESE,115,0.0,1.0,81,0.00,,,0.00,VWS V14.01,2013-03-07 15:17:00,
2013-03-07 08:22:00,17.0,12.2,30.10,ESE,110,0.0,1.0,81,0.00,,,0.00,VWS V14.01,2013-03-07 15:22:00,
2013-03-07 08:27:00,17.0,12.2,30.10,ESE,112,0.0,1.0,81,0.00,,,0.00,VWS V14.01,2013-03-07 15:27:00,
2013-03-07 08:30:00,17.0,12.2,30.11,ESE,112,0.0,1.0,81,0.00,,,0.00,VWS V14.01,2013-03-07 15:30:00,
2013-03-07 08:32:00,17.2,12.1,30.11,ESE,112,0.0,0.0,80,0.00,,,0.00,VWS V14.01,2013-03-07 15:32:00,
2013-03-07 08:37:00,17.3,12.5,30.11,ESE,112,0.0,0.0,81,0.00,,,0.00,VWS V14.01,2013-03-07 15:37:00,
2013-03-07 08:42:00,17.5,12.4,30.11,ESE,103,0.0,0.0,80,0.00,,,0.00,VWS V14.01,2013-03-07 15:42:00,
2013-03-07 08:47:00,17.8,12.7,30.10,SE,136,0.0,0.0,80,0.00,,,0.00,VWS V14.01,2013-03-07 15:47:00,
2013-03-07 08:52:00,17.8,12.4,30.10,SE,136,0.0,0.0,79,0.00,,,0.00,VWS V14.01,2013-03-07 15:52:00,
2013-03-07 08:57:00,18.0,12.6,30.10,ESE,122,0.0,1.0,79,0.00,,,0.00,VWS V14.01,2013-03-07 15:57:00,
2013-03-07 09:00:00,18.1,12.7,30.11,ESE,108,0.0,1.0,79,0.00,,,0.00,VWS V14.01,2013-03-07 16:00:00,
2013-03-07 09:02:00,18.1,12.4,30.11,ESE,115,0.0,0.0,78,0.00,,,0.00,VWS V14.01,2013-03-07 16:02:00,
2013-03-07 09:07:00,18.1,12.4,30.11,ESE,123,0.0,2.0,78,0.00,,,0.00,VWS V14.01,2013-03-07 16:07:00,
2013-03-07 09:15:00,32.0,32.0,0.00,North,0,0.0,0.0,0,0.00,,,0.00,VWS V14.01,2013-03-07 16:15:00,
2013-03-07 09:20:00,18.4,13.0,30.11,ESE,111,0.0,0.0,79,0.00,,,0.00,VWS V14.01,2013-03-07 16:20:00,
2013-03-07 09:25:00,18.4,12.7,30.11,ESE,110,1.0,1.0,78,0.00,,,0.00,VWS V14.01,2013-03-07 16:25:00,
2013-03-07 09:30:00,18.4,12.7,30.11,SE,143,0.0,0.0,78,0.00,,,0.00,VWS V14.01,2013-03-07 16:30:00,
2013-03-07 09:35:00,18.6,12.9,30.11,SE,143,0.0,0.0,78,0.00,,,0.00,VWS V14.01,2013-03-07 16:35:00,
2013-03-07 09:40:00,18.6,12.9,30.11,SE,143,0.0,0.0,78,0.00,,,0.00,VWS V14.01,2013-03-07 16:40:00,
2013-03-07 09:45:00,18.8,12.8,30.11,SE,137,0.0,1.0,77,0.00,,,0.00,VWS V14.01,2013-03-07 16:45:00,
2013-03-07 09:50:00,18.9,12.9,30.11,ESE,113,0.0,1.0,77,0.00,,,0.00,VWS V14.01,2013-03-07 16:50:00,
2013-03-07 09:55:00,18.9,12.9,30.11,ESE,115,0.0,1.0,77,0.00,,,0.00,VWS V14.01,2013-03-07 16:55:00,
2013-03-07 10:00:00,18.9,12.6,30.12,ESE,102,0.0,0.0,76,0.00,,,0.00,VWS V14.01,2013-03-07 17:00:00,
2013-03-07 10:05:00,19.1,13.1,30.12,ESE,102,0.0,1.0,77,0.00,,,0.00,VWS V14.01,2013-03-07 17:05:00,
2013-03-07 10:10:00,19.2,12.9,30.12,SE,130,0.0,1.0,76,0.00,,,0.00,VWS V14.01,2013-03-07 17:10:00,
2013-03-07 10:15:00,19.2,12.6,30.12,ESE,105,0.0,1.0,75,0.00,,,0.00,VWS V14.01,2013-03-07 17:15:00,
2013-03-07 10:20:00,19.2,12.6,30.12,SE,129,0.0,1.0,75,0.00,,,0.00,VWS V14.01,2013-03-07 17:20:00,
2013-03-07 10:25:00,19.5,12.9,30.12,ESE,120,0.0,1.0,75,0.00,,,0.00,VWS V14.01,2013-03-07 17:25:00,
2013-03-07 10:30:00,19.9,13.6,30.12,East,79,0.0,1.0,76,0.00,,,0.00,VWS V14.01,2013-03-07 17:30:00,
2013-03-07 10:35:00,20.0,13.7,30.12,ESE,122,0.0,1.0,76,0.00,,,0.00,VWS V14.01,2013-03-07 17:35:00,
2013-03-07 10:40:00,20.2,13.9,30.12,East,98,0.0,1.0,76,0.00,,,0.00,VWS V14.01,2013-03-07 17:40:00,
2013-03-07 10:45:00,20.5,13.9,30.13,East,98,0.0,1.0,75,0.00,,,0.00,VWS V14.01,2013-03-07 17:45:00,
2013-03-07 10:50:00,20.8,14.1,30.13,ESE,114,0.0,2.0,75,0.00,,,0.00,VWS V14.01,2013-03-07 17:50:00,
2013-03-07 10:55:00,21.1,14.1,30.13,ESE,110,0.0,2.0,74,0.00,,,0.00,VWS V14.01,2013-03-07 17:55:00,
2013-03-07 11:00:00,21.4,14.4,30.11,ESE,121,0.0,0.0,74,0.00,,,0.00,VWS V14.01,2013-03-07 18:00:00,
2013-03-07 11:05:00,21.6,14.3,30.11,ESE,115,0.0,0.0,73,0.00,,,0.00,VWS V14.01,2013-03-07 18:05:00,
2013-03-07 11:10:00,21.9,14.3,30.11,ESE,115,0.0,0.0,72,0.00,,,0.00,VWS V14.01,2013-03-07 18:10:00,
2013-03-07 11:15:00,22.5,14.9,30.12,ESE,120,0.0,0.0,72,0.00,,,0.00,VWS V14.01,2013-03-07 18:15:00,
2013-03-07 11:20:00,23.0,15.0,30.12,ESE,120,0.0,0.0,71,0.00,,,0.00,VWS V14.01,2013-03-07 18:20:00,
2013-03-07 11:26:00,23.5,15.2,30.12,ESE,110,0.0,1.0,70,0.00,,,0.00,VWS V14.01,2013-03-07 18:26:00,
2013-03-07 11:31:00,23.9,15.6,30.11,ESE,110,0.0,0.0,70,0.00,,,0.00,VWS V14.01,2013-03-07 18:31:00,
2013-03-07 11:36:00,24.5,15.8,30.11,ESE,110,0.0,0.0,69,0.00,,,0.00,VWS V14.01,2013-03-07 18:36:00,
2013-03-07 11:41:00,25.0,15.6,30.11,ESE,110,0.0,0.0,67,0.00,,,0.00,VWS V14.01,2013-03-07 18:41:00,
2013-03-07 11:46:00,25.0,15.6,30.09,ESE,110,0.0,0.0,67,0.00,,,0.00,VWS V14.01,2013-03-07 18:46:00,
2013-03-07 11:51:00,25.1,15.7,30.09,ESE,110,0.0,0.0,67,0.00,,,0.00,VWS V14.01,2013-03-07 18:51:00,
2013-03-07 11:56:00,25.4,16.0,30.09,ESE,110,0.0,0.0,67,0.00,,,0.00,VWS V14.01,2013-03-07 18:56:00,
2013-03-07 12:01:00,25.8,16.0,30.09,ESE,110,0.0,0.0,66,0.00,,,0.00,VWS V14.01,2013-03-07 19:01:00,
2013-03-07 12:06:00,25.8,15.7,30.09,ESE,110,0.0,0.0,65,0.00,,,0.00,VWS V14.01,2013-03-07 19:06:00,
2013-03-07 12:11:00,26.0,16.2,30.09,ESE,110,0.0,0.0,66,0.00,,,0.00,VWS V14.01,2013-03-07 19:11:00,
2013-03-07 12:16:00,26.1,16.0,30.09,East,98,0.0,1.0,65,0.00,,,0.00,VWS V14.01,2013-03-07 19:16:00,
2013-03-07 12:21:00,26.3,15.8,30.09,East,98,0.0,1.0,64,0.00,,,0.00,VWS V14.01,2013-03-07 19:21:00,
2013-03-07 12:26:00,26.6,16.1,30.09,East,98,0.0,1.0,64,0.00,,,0.00,VWS V14.01,2013-03-07 19:26:00,
2013-03-07 12:31:00,27.0,16.8,30.08,East,100,0.0,0.0,65,0.00,,,0.00,VWS V14.01,2013-03-07 19:31:00,
2013-03-07 12:36:00,27.2,16.3,30.08,East,100,0.0,0.0,63,0.00,,,0.00,VWS V14.01,2013-03-07 19:36:00,
2013-03-07 12:41:00,27.3,16.4,30.08,East,100,0.0,0.0,63,0.00,,,0.00,VWS V14.01,2013-03-07 19:41:00,
2013-03-07 12:46:00,27.8,17.2,30.08,East,100,0.0,0.0,64,0.00,,,0.00,VWS V14.01,2013-03-07 19:46:00,
2013-03-07 12:51:00,28.2,17.2,30.08,East,100,0.0,0.0,63,0.01,,,0.01,VWS V14.01,2013-03-07 19:51:00,
2013-03-07 12:56:00,28.8,17.8,30.08,East,100,0.0,0.0,63,0.01,,,0.01,VWS V14.01,2013-03-07 19:56:00,
2013-03-07 13:01:00,29.3,17.5,30.07,East,100,0.0,0.0,61,0.01,,,0.01,VWS V14.01,2013-03-07 20:01:00,
2013-03-07 13:06:00,29.3,17.5,30.07,East,100,0.0,0.0,61,0.01,,,0.01,VWS V14.01,2013-03-07 20:06:00,
2013-03-07 13:11:00,29.5,17.7,30.07,SE,126,0.0,1.0,61,0.01,,,0.01,VWS V14.01,2013-03-07 20:11:00,
2013-03-07 13:17:00,29.4,18.0,30.07,ESE,111,0.0,1.0,62,0.01,,,0.01,VWS V14.01,2013-03-07 20:17:00,
2013-03-07 13:22:00,29.7,18.7,30.07,ESE,110,0.0,1.0,63,0.01,,,0.01,VWS V14.01,2013-03-07 20:22:00,
2013-03-07 13:27:00,29.7,18.3,30.07,ESE,116,0.0,1.0,62,0.01,,,0.01,VWS V14.01,2013-03-07 20:27:00,
2013-03-07 13:32:00,29.7,18.7,30.07,ESE,117,0.0,0.0,63,0.01,,,0.01,VWS V14.01,2013-03-07 20:32:00,
2013-03-07 13:37:00,30.1,18.7,30.07,ESE,120,0.0,0.0,62,0.01,,,0.01,VWS V14.01,2013-03-07 20:37:00,
2013-03-07 13:42:00,30.0,18.6,30.07,ESE,105,0.0,1.0,62,0.01,,,0.01,VWS V14.01,2013-03-07 20:42:00,
2013-03-07 13:47:00,29.7,18.7,30.07,SE,131,0.0,1.0,63,0.01,,,0.01,VWS V14.01,2013-03-07 20:47:00,
2013-03-07 13:52:00,29.4,18.4,30.07,ESE,103,0.0,3.0,63,0.01,,,0.01,VWS V14.01,2013-03-07 20:52:00,
2013-03-07 13:57:00,29.1,18.5,30.07,ESE,110,0.0,3.0,64,0.01,,,0.01,VWS V14.01,2013-03-07 20:57:00,
2013-03-07 14:02:00,29.0,18.4,30.08,ESE,107,1.0,1.0,64,0.00,,,0.01,VWS V14.01,2013-03-07 21:02:00,
2013-03-07 14:07:00,28.7,18.4,30.08,ESE,109,0.0,1.0,65,0.00,,,0.01,VWS V14.01,2013-03-07 21:07:00,
2013-03-07 14:12:00,28.4,18.5,30.08,East,100,0.0,1.0,66,0.00,,,0.01,VWS V14.01,2013-03-07 21:12:00,
2013-03-07 14:17:00,28.4,18.9,30.07,ESE,117,0.0,2.0,67,0.00,,,0.01,VWS V14.01,2013-03-07 21:17:00,
2013-03-07 14:22:00,28.5,19.0,30.07,ESE,114,0.0,2.0,67,0.00,,,0.01,VWS V14.01,2013-03-07 21:22:00,
2013-03-07 14:27:00,29.0,18.7,30.07,ESE,105,0.0,2.0,65,0.00,,,0.01,VWS V14.01,2013-03-07 21:27:00,
2013-03-07 14:32:00,29.4,19.1,30.07,ESE,110,0.0,0.0,65,0.00,,BKN170,0.01,VWS V14.01,2013-03-07 21:32:00,
2013-03-07 14:37:00,29.4,18.7,30.07,ESE,112,0.0,0.0,64,0.00,,BKN170,0.01,VWS V14.01,2013-03-07 21:37:00,
2013-03-07 14:42:00,29.5,19.6,30.07,ESE,110,0.0,1.0,66,0.00,,BKN170,0.01,VWS V14.01,2013-03-07 21:42:00,
2013-03-07 14:47:00,29.5,19.2,30.06,ESE,115,0.0,1.0,65,0.00,,BKN170,0.01,VWS V14.01,2013-03-07 21:47:00,
2013-03-07 14:52:00,29.3,19.0,30.06,ESE,115,0.0,1.0,65,0.00,,BKN170,0.01,VWS V14.01,2013-03-07 21:52:00,
2013-03-07 14:57:00,29.3,19.4,30.06,ESE,115,0.0,1.0,66,0.00,,BKN170,0.01,VWS V14.01,2013-03-07 21:57:00,
2013-03-07 15:02:00,29.1,19.2,30.07,ESE,122,0.0,0.0,66,0.00,,BKN170,0.01,VWS V14.01,2013-03-07 22:02:00,
2013-03-07 15:07:00,29.3,19.7,30.07,ESE,115,0.0,0.0,67,0.00,,BKN170,0.01,VWS V14.01,2013-03-07 22:07:00,
2013-03-07 15:12:00,29.1,19.2,30.07,ESE,115,0.0,1.0,66,0.00,,BKN170,0.01,VWS V14.01,2013-03-07 22:12:00,
2013-03-07 15:18:00,29.0,19.1,30.07,ESE,115,0.0,1.0,66,0.00,,BKN170,0.01,VWS V14.01,2013-03-07 22:18:00,
2013-03-07 15:23:00,28.8,19.2,30.07,ESE,122,0.0,1.0,67,0.00,,BKN170,0.01,VWS V14.01,2013-03-07 22:23:00,
2013-03-07 15:28:00,28.8,19.2,30.07,ESE,122,0.0,1.0,67,0.00,,BKN170,0.01,VWS V14.01,2013-03-07 22:28:00,
2013-03-07 16:20:00,28.1,19.3,30.09,ESE,114,0.0,0.0,69,0.00,,BKN170,0.01,VWS V14.01,2013-03-07 23:20:00,
2013-03-07 16:25:00,27.8,19.0,30.09,ESE,117,0.0,0.0,69,0.00,,BKN170,0.01,VWS V14.01,2013-03-07 23:25:00,
2013-03-07 16:30:00,27.6,18.8,30.09,SE,127,0.0,0.0,69,0.00,,BKN170,0.01,VWS V14.01,2013-03-07 23:30:00,
2013-03-07 16:35:00,27.5,18.7,30.09,ESE,120,0.0,1.0,69,0.00,,BKN180,0.01,VWS V14.01,2013-03-07 23:35:00,
2013-03-07 16:40:00,27.2,18.4,30.09,ESE,117,0.0,1.0,69,0.00,,BKN180,0.01,VWS V14.01,2013-03-07 23:40:00,
2013-03-07 16:45:00,27.0,18.5,30.09,SE,137,0.0,2.0,70,0.00,,BKN180,0.01,VWS V14.01,2013-03-07 23:45:00,
2013-03-07 16:50:00,26.7,18.2,30.09,ESE,102,0.0,2.0,70,0.00,,BKN180,0.01,VWS V14.01,2013-03-07 23:50:00,
2013-03-07 16:55:00,26.6,18.1,30.09,ESE,115,0.0,2.0,70,0.00,,BKN180,0.01,VWS V14.01,2013-03-07 23:55:00,
2013-03-07 17:00:00,26.4,18.3,30.10,ESE,117,0.0,0.0,71,0.00,,BKN180,0.01,VWS V14.01,2013-03-08 00:00:00,
2013-03-07 17:05:00,26.1,18.0,30.10,ESE,117,0.0,0.0,71,0.00,,BKN180,0.01,VWS V14.01,2013-03-08 00:05:00,
2013-03-07 17:10:00,26.1,18.0,30.10,ESE,117,0.0,1.0,71,0.00,,BKN180,0.01,VWS V14.01,2013-03-08 00:10:00,
2013-03-07 17:15:00,26.0,17.9,30.10,ESE,103,0.0,1.0,71,0.00,,BKN180,0.01,VWS V14.01,2013-03-08 00:15:00,
2013-03-07 17:20:00,25.8,17.7,30.10,East,101,0.0,1.0,71,0.00,,BKN180,0.01,VWS V14.01,2013-03-08 00:20:00,
2013-03-07 17:25:00,25.7,17.6,30.10,East,95,0.0,1.0,71,0.00,,BKN180,0.01,VWS V14.01,2013-03-08 00:25:00,
2013-03-07 17:30:00,25.4,17.3,30.11,ESE,108,0.0,0.0,71,0.00,,BKN180,0.01,VWS V14.01,2013-03-08 00:30:00,
2013-03-07 17:35:00,25.1,17.0,30.11,ESE,108,0.0,1.0,71,0.00,,BKN200,0.01,VWS V14.01,2013-03-08 00:35:00,
2013-03-07 17:40:00,25.0,17.3,30.11,SE,134,0.0,1.0,72,0.00,,BKN200,0.01,VWS V14.01,2013-03-08 00:40:00,
2013-03-07 17:45:00,24.7,17.0,30.11,SE,130,0.0,1.0,72,0.00,,BKN200,0.01,VWS V14.01,2013-03-08 00:45:00,
2013-03-07 17:50:00,24.5,16.8,30.11,ESE,116,0.0,1.0,72,0.00,,BKN200,0.01,VWS V14.01,2013-03-08 00:50:00,
2013-03-07 17:55:00,24.2,16.8,30.11,ESE,116,0.0,1.0,73,0.00,,BKN200,0.01,VWS V14.01,2013-03-08 00:55:00,
2013-03-07 18:00:00,24.2,16.8,30.12,ESE,116,0.0,0.0,73,0.00,,BKN200,0.01,VWS V14.01,2013-03-08 01:00:00,
2013-03-07 18:06:00,23.9,16.5,30.12,ESE,115,0.0,1.0,73,0.00,,BKN200,0.01,VWS V14.01,2013-03-08 01:06:00,
2013-03-07 18:11:00,23.8,16.4,30.12,ESE,118,0.0,2.0,73,0.00,,BKN200,0.01,VWS V14.01,2013-03-08 01:11:00,
2013-03-07 18:16:00,23.5,16.5,30.13,SE,126,0.0,2.0,74,0.00,,BKN200,0.01,VWS V14.01,2013-03-08 01:16:00,
2013-03-07 18:21:00,23.3,16.2,30.13,ESE,110,0.0,2.0,74,0.00,,BKN200,0.01,VWS V14.01,2013-03-08 01:21:00,
2013-03-07 18:26:00,23.2,16.2,30.13,SSE,153,0.0,2.0,74,0.00,,BKN200,0.01,VWS V14.01,2013-03-08 01:26:00,
2013-03-07 18:31:00,23.0,16.0,30.14,ESE,114,0.0,0.0,74,0.00,,BKN200,0.01,VWS V14.01,2013-03-08 01:31:00,
2013-03-07 18:36:00,22.7,15.7,30.14,ESE,114,0.0,0.0,74,0.00,,BKN200,0.01,VWS V14.01,2013-03-08 01:36:00,
2013-03-07 18:41:00,22.5,15.5,30.14,ESE,112,0.0,1.0,74,0.00,,BKN200,0.01,VWS V14.01,2013-03-08 01:41:00,
2013-03-07 18:46:00,22.4,15.4,30.16,ESE,105,0.0,2.0,74,0.00,,BKN200,0.01,VWS V14.01,2013-03-08 01:46:00,
2013-03-07 18:51:00,22.2,15.5,30.16,ESE,105,0.0,2.0,75,0.00,,BKN200,0.01,VWS V14.01,2013-03-08 01:51:00,
2013-03-07 18:56:00,22.1,15.4,30.16,ESE,102,0.0,2.0,75,0.00,,BKN200,0.01,VWS V14.01,2013-03-08 01:56:00,
2013-03-07 19:01:00,21.9,15.2,30.16,East,99,0.0,0.0,75,0.00,,BKN200,0.01,VWS V14.01,2013-03-08 02:01:00,
2013-03-07 19:06:00,21.8,15.1,30.16,SSE,147,0.0,0.0,75,0.00,,BKN200,0.01,VWS V14.01,2013-03-08 02:06:00,
2013-03-07 19:11:00,21.6,14.9,30.16,SE,136,0.0,0.0,75,0.00,,BKN200,0.01,VWS V14.01,2013-03-08 02:11:00,
2013-03-07 19:16:00,21.6,14.9,30.17,ESE,105,0.0,1.0,75,0.00,,BKN200,0.01,VWS V14.01,2013-03-08 02:16:00,
2013-03-07 19:21:00,21.4,14.7,30.17,SSE,150,0.0,1.0,75,0.00,,BKN200,0.01,VWS V14.01,2013-03-08 02:21:00,
2013-03-07 19:26:00,21.3,14.6,30.17,ESE,111,0.0,1.0,75,0.00,,BKN200,0.01,VWS V14.01,2013-03-08 02:26:00,
2013-03-07 19:31:00,21.1,14.4,30.17,ESE,110,0.0,0.0,75,0.00,,BKN130,0.01,VWS V14.01,2013-03-08 02:31:00,
2013-03-07 19:36:00,20.8,14.1,30.17,ESE,113,0.0,1.0,75,0.00,,BKN130,0.01,VWS V14.01,2013-03-08 02:36:00,
2013-03-07 19:41:00,20.8,14.1,30.17,ESE,113,0.0,1.0,75,0.00,,BKN130,0.01,VWS V14.01,2013-03-08 02:41:00,
2013-03-07 19:46:00,20.5,14.1,30.17,ESE,113,0.0,1.0,76,0.00,,BKN130,0.01,VWS V14.01,2013-03-08 02:46:00,
2013-03-07 19:51:00,20.5,14.1,30.17,ESE,113,0.0,1.0,76,0.00,,BKN130,0.01,VWS V14.01,2013-03-08 02:51:00,
2013-03-07 19:56:00,20.3,14.0,30.17,ESE,113,0.0,1.0,76,0.00,,BKN130,0.01,VWS V14.01,2013-03-08 02:56:00,
2013-03-07 20:01:00,20.0,13.4,30.18,ESE,113,0.0,1.0,75,0.00,,BKN130,0.01,VWS V14.01,2013-03-08 03:01:00,
2013-03-07 20:06:00,19.9,13.3,30.18,ESE,113,0.0,1.0,75,0.00,,BKN130,0.01,VWS V14.01,2013-03-08 03:06:00,
2013-03-07 20:11:00,19.7,13.4,30.18,ESE,113,0.0,1.0,76,0.00,,BKN130,0.01,VWS V14.01,2013-03-08 03:11:00,
2013-03-07 20:16:00,19.5,13.2,30.17,ESE,113,0.0,1.0,76,0.00,,BKN130,0.01,VWS V14.01,2013-03-08 03:16:00,
2013-03-07 20:21:00,19.4,13.1,30.17,ESE,112,0.0,1.0,76,0.00,,BKN130,0.01,VWS V14.01,2013-03-08 03:21:00,
2013-03-07 20:26:00,19.2,13.2,30.17,East,100,0.0,1.0,77,0.00,,BKN130,0.01,VWS V14.01,2013-03-08 03:26:00,
2013-03-07 20:31:00,19.2,12.9,30.18,East,100,0.0,0.0,76,0.00,,,0.01,VWS V14.01,2013-03-08 03:31:00,
2013-03-07 20:36:00,19.2,13.2,30.18,East,100,0.0,1.0,77,0.00,,,0.01,VWS V14.01,2013-03-08 03:36:00,
2013-03-07 20:41:00,19.1,13.1,30.18,East,100,0.0,1.0,77,0.00,,,0.01,VWS V14.01,2013-03-08 03:41:00,
2013-03-07 20:46:00,19.1,13.1,30.18,East,100,0.0,1.0,77,0.00,,,0.01,VWS V14.01,2013-03-08 03:46:00,
2013-03-07 20:51:00,18.9,12.9,30.18,East,100,0.0,1.0,77,0.00,,,0.01,VWS V14.01,2013-03-08 03:51:00,
2013-03-07 20:57:00,18.8,12.8,30.18,East,100,0.0,1.0,77,0.00,,,0.01,VWS V14.01,2013-03-08 03:57:00,
2013-03-07 21:02:00,18.6,12.6,30.19,East,100,0.0,0.0,77,0.00,,,0.01,VWS V14.01,2013-03-08 04:02:00,
2013-03-07 21:07:00,18.4,12.4,30.19,East,100,0.0,1.0,77,0.00,,,0.01,VWS V14.01,2013-03-08 04:07:00,
2013-03-07 21:12:00,18.4,12.4,30.19,East,100,0.0,1.0,77,0.00,,,0.01,VWS V14.01,2013-03-08 04:12:00,
2013-03-07 21:17:00,18.4,12.4,30.20,East,100,0.0,1.0,77,0.00,,,0.01,VWS V14.01,2013-03-08 04:17:00,
2013-03-07 21:22:00,18.3,12.3,30.20,East,100,0.0,1.0,77,0.00,,,0.01,VWS V14.01,2013-03-08 04:22:00,
2013-03-07 21:27:00,18.1,12.1,30.20,East,100,0.0,1.0,77,0.00,,,0.01,VWS V14.01,2013-03-08 04:27:00,
2013-03-07 21:32:00,18.0,12.3,30.20,East,100,0.0,0.0,78,0.00,,,0.01,VWS V14.01,2013-03-08 04:32:00,
2013-03-07 21:37:00,18.0,12.3,30.20,East,100,0.0,0.0,78,0.00,,,0.01,VWS V14.01,2013-03-08 04:37:00,
2013-03-07 21:42:00,17.8,12.1,30.20,East,100,0.0,0.0,78,0.00,,,0.01,VWS V14.01,2013-03-08 04:42:00,
2013-03-07 21:47:00,17.8,12.1,30.20,East,100,0.0,0.0,78,0.00,,,0.01,VWS V14.01,2013-03-08 04:47:00,
2013-03-07 21:52:00,17.8,12.4,30.20,East,100,0.0,0.0,79,0.00,,,0.01,VWS V14.01,2013-03-08 04:52:00,
2013-03-07 21:57:00,17.8,12.4,30.20,East,100,0.0,0.0,79,0.00,,,0.01,VWS V14.01,2013-03-08 04:57:00,
2013-03-07 22:00:00,17.7,12.3,30.20,East,100,0.0,0.0,79,0.00,,,0.01,VWS V14.01,2013-03-08 05:00:00,
2013-03-07 22:02:00,17.7,12.3,30.20,East,100,0.0,0.0,79,0.00,,,0.01,VWS V14.01,2013-03-08 05:02:00,
2013-03-07 22:07:00,17.7,12.3,30.20,East,100,0.0,0.0,79,0.00,,,0.01,VWS V14.01,2013-03-08 05:07:00,
2013-03-07 22:12:00,17.3,11.9,30.20,East,100,0.0,0.0,79,0.00,,,0.01,VWS V14.01,2013-03-08 05:12:00,
2013-03-07 22:17:00,17.2,11.8,30.18,East,100,0.0,0.0,79,0.00,,,0.01,VWS V14.01,2013-03-08 05:17:00,
2013-03-07 22:22:00,17.2,11.8,30.18,East,100,0.0,0.0,79,0.00,,,0.01,VWS V14.01,2013-03-08 05:22:00,
2013-03-07 22:27:00,17.0,11.6,30.18,East,100,0.0,0.0,79,0.00,,,0.01,VWS V14.01,2013-03-08 05:27:00,
2013-03-07 22:32:00,17.0,11.6,30.18,East,100,0.0,0.0,79,0.00,,,0.01,VWS V14.01,2013-03-08 05:32:00,
2013-03-07 22:37:00,16.7,11.3,30.18,East,100,0.0,0.0,79,0.00,,,0.01,VWS V14.01,2013-03-08 05:37:00,
2013-03-07 22:42:00,16.7,11.6,30.18,East,100,0.0,0.0,80,0.00,,,0.01,VWS V14.01,2013-03-08 05:42:00,
2013-03-07 22:47:00,16.5,11.4,30.18,East,100,0.0,0.0,80,0.00,,,0.01,VWS V14.01,2013-03-08 05:47:00,
2013-03-07 22:52:00,16.4,11.0,30.18,East,100,0.0,0.0,79,0.00,,,0.01,VWS V14.01,2013-03-08 05:52:00,
2013-03-07 22:57:00,16.2,10.8,30.18,East,100,0.0,0.0,79,0.00,,,0.01,VWS V14.01,2013-03-08 05:57:00,
2013-03-07 23:02:00,16.1,11.0,30.19,East,100,0.0,0.0,80,0.00,,,0.01,VWS V14.01,2013-03-08 06:02:00,
2013-03-07 23:07:00,15.9,10.8,30.19,East,100,0.0,0.0,80,0.00,,,0.01,VWS V14.01,2013-03-08 06:07:00,
2013-03-07 23:12:00,15.7,10.6,30.19,East,100,0.0,0.0,80,0.00,,,0.01,VWS V14.01,2013-03-08 06:12:00,
2013-03-07 23:17:00,15.4,10.4,30.15,East,100,0.0,0.0,80,0.00,,,0.01,VWS V14.01,2013-03-08 06:17:00,
2013-03-07 23:22:00,15.4,10.4,30.15,East,100,0.0,0.0,80,0.00,,,0.01,VWS V14.01,2013-03-08 06:22:00,
2013-03-07 23:27:00,15.4,10.6,30.15,East,100,0.0,0.0,81,0.00,,,0.01,VWS V14.01,2013-03-08 06:27:00,
2013-03-07 23:32:00,15.2,10.1,30.16,East,100,0.0,0.0,80,0.00,,,0.01,VWS V14.01,2013-03-08 06:32:00,
2013-03-07 23:37:00,15.2,10.4,30.16,East,100,0.0,0.0,81,0.00,,,0.01,VWS V14.01,2013-03-08 06:37:00,
2013-03-07 23:42:00,15.1,10.3,30.16,East,100,0.0,0.0,81,0.00,,,0.01,VWS V14.01,2013-03-08 06:42:00,
2013-03-07 23:47:00,15.1,10.3,30.16,East,100,0.0,0.0,81,0.00,,,0.01,VWS V14.01,2013-03-08 06:47:00,
2013-03-07 23:52:00,15.1,10.3,30.16,East,100,0.0,0.0,81,0.00,,,0.01,VWS V14.01,2013-03-08 06:52:00,
2013-03-07 23:57:00,15.2,10.7,30.16,East,100,0.0,0.0,82,0.00,,,0.01,VWS V14.01,2013-03-08 06:57:00,